Flag for Mozambique Weather past 2 weeks in Beira, Mozambique

Now
82 °F

Passing clouds.


Feels Like: 89 °F
Forecast: 78 / 88 °F
Wind: 9 mph from Northeast

Location: Beira Airport

Current Time: Jan 26, 2015 at 11:17:29 PM

Latest Report: Jan 26, 2015 at 10:00 PM


Visibility: N/A

Pressure: 29.89 "Hg

Humidity: 79%

Dew point: 75 °F

Location of BeiraLocation

Historic Weather in Beira — Graph

°F

Beira temperature yesterday

Maximum temperature yesterday: 90 °F (at 2:00 PM)
Minimum temperature yesterday: 82 °F (at 8:00 PM)
Average temperature yesterday: 87 °F

Past Weeks' High & Low Weather Summary

 TemperatureHumidityPressure
High90 °F (Jan 25, 2:00 PM)100% (Jan 13, 8:00 AM)30.07 "Hg (Jan 13, 8:00 AM)
Low73 °F (Jan 24, 6:00 AM)55% (Jan 19, 1:00 PM)29.65 "Hg (Jan 13, 2:00 PM)
Average83 °F76%29.85 "Hg
* Reported Jan 11 10:00 PM — Jan 26 10:00 PM, Beira, Weather by CustomWeather, © 2014

Note: Actual official high and low records may vary slightly from our data, if they occured in-between our weather recording intervals... More about our weather records

Advertising

Beira weather history for previous 24 hours

 ConditionsComfort  
Time TempWeatherWind HumidityBarometerVisibility
10:00 PM
Jan 26
82 °FPassing clouds.9 mph79%29.89 "HgN/A
9:00 PM82 °FPassing clouds.12 mph79%29.86 "HgN/A
8:00 PM82 °FPassing clouds.13 mph84%29.86 "HgN/A
7:00 PM84 °FPassing clouds.13 mph79%29.83 "HgN/A
6:00 PM86 °FBroken clouds.18 mph79%29.80 "HgN/A
5:00 PM86 °FPassing clouds.20 mph79%29.80 "HgN/A
4:00 PM88 °FPassing clouds.17 mph75%29.83 "HgN/A
3:00 PM88 °FPassing clouds.18 mph79%29.86 "HgN/A
2:00 PM90 °FPassing clouds.18 mph75%29.86 "HgN/A
1:00 PM88 °FScattered clouds.14 mph75%29.86 "HgN/A
12:00 PM90 °FScattered clouds.14 mph71%29.86 "HgN/A
11:00 AM90 °FScattered clouds.14 mph75%29.89 "HgN/A
10:00 AM90 °FScattered clouds.6 mph67%29.89 "HgN/A
9:00 AM86 °FPassing clouds.5 mph75%29.92 "HgN/A
8:00 AM82 °FPassing clouds.8 mph79%29.89 "HgN/A
6:00 AM75 °FPassing clouds.5 mph94%29.86 "HgN/A
Weather by CustomWeather, © 2014

See weather overviewHow to use our weather pages